• In Czech Republic
  • List of Countries
  • For 7 days
  • Water Temperature
  • Satellite Maps
  • Weather Map
  • Weather Widgets
  • user-avatar
    Login

    Hourly Weather Matlock

    Today, 12 December, Tuesday

    Time Temperature Precipitation Wind Pressure Humidity
    00:00 -5°C° 0 mm 3 mps 733 mmHg 90%
    01:00 -5°C° 0 mm 3 mps 733 mmHg 90%
    02:00 -5°C° 0 mm 3 mps 734 mmHg 90%
    03:00 -4°C° 0 mm 2 mps 735 mmHg 90%
    04:00 -4°C° 0 mm 2 mps 735 mmHg 90%
    05:00 -4°C° 0 mm 2 mps 736 mmHg 90%
    06:00 -4°C° 0 mm 2 mps 736 mmHg 90%
    07:00 -4°C° 0 mm 2 mps 737 mmHg 90%
    08:00 -3°C° 0 mm 2 mps 737 mmHg 90%
    09:00 -3°C° 0 mm 2 mps 738 mmHg 90%
    10:00 -2°C° 0 mm 2 mps 738 mmHg 89%
    11:00 -2°C° 0 mm 3 mps 738 mmHg 89%
    12:00 -1°C° 0 mm 3 mps 738 mmHg 88%
    13:00 0°C° 0 mm 3 mps 738 mmHg 90%
    14:00 0°C° 0 mm 3 mps 738 mmHg 91%
    15:00 -1°C° 0 mm 4 mps 738 mmHg 93%
    16:00 -1°C° 0 mm 4 mps 738 mmHg 93%
    17:00 -1°C° 0 mm 4 mps 738 mmHg 94%
    18:00 -1°C° 0 mm 4 mps 738 mmHg 94%
    19:00 0°C° 0.3 mm 5 mps 737 mmHg 94%
    20:00 -1°C° 0.3 mm 6 mps 736 mmHg 95%
    21:00 -1°C° 0.3 mm 7 mps 736 mmHg 95%
    22:00 +1°C° 0.4 mm 6 mps 735 mmHg 95%
    23:00 +1°C° 0.4 mm 6 mps 734 mmHg 96%

    Tomorrow, 13 December, Wednesday

    Time Temperature Precipitation Wind Pressure Humidity
    00:00 +1°C° 0.4 mm 6 mps 734 mmHg 96%
    01:00 +1°C° 0.1 mm 5 mps 734 mmHg 96%
    02:00 +1°C° 0.1 mm 4 mps 734 mmHg 96%
    03:00 +2°C° 0.1 mm 3 mps 733 mmHg 96%
    04:00 +1°C° 0 mm 4 mps 733 mmHg 96%
    05:00 0°C° 0 mm 4 mps 733 mmHg 95%
    06:00 0°C° 0 mm 4 mps 733 mmHg 94%
    07:00 0°C° 0 mm 4 mps 732 mmHg 94%
    08:00 0°C° 0 mm 4 mps 732 mmHg 94%
    09:00 +1°C° 0 mm 5 mps 731 mmHg 94%
    10:00 +1°C° 0.3 mm 5 mps 730 mmHg 94%
    11:00 +2°C° 0.3 mm 6 mps 730 mmHg 94%
    12:00 +2°C° 0.3 mm 6 mps 729 mmHg 93%
    13:00 +2°C° 0.4 mm 6 mps 728 mmHg 88%
    14:00 +2°C° 0.4 mm 7 mps 728 mmHg 83%
    15:00 +2°C° 0.4 mm 7 mps 728 mmHg 77%
    16:00 0°C° 0.1 mm 7 mps 728 mmHg 77%
    17:00 0°C° 0.1 mm 7 mps 728 mmHg 76%
    18:00 -1°C° 0.1 mm 7 mps 728 mmHg 75%
    19:00 -1°C° 0.2 mm 7 mps 728 mmHg 74%
    20:00 -1°C° 0.2 mm 7 mps 728 mmHg 72%
    21:00 -2°C° 0.2 mm 7 mps 728 mmHg 71%
    22:00 -2°C° 0.1 mm 7 mps 728 mmHg 71%
    23:00 -2°C° 0.1 mm 7 mps 728 mmHg 72%

    Day after tomorrow, 14 December, Thursday

    Time Temperature Precipitation Wind Pressure Humidity
    00:00 -2°C° 0.1 mm 7 mps 728 mmHg 72%
    01:00 -2°C° 0.1 mm 7 mps 728 mmHg 73%
    02:00 -2°C° 0.1 mm 7 mps 728 mmHg 75%
    03:00 -2°C° 0.1 mm 6 mps 728 mmHg 76%
    04:00 -2°C° 0.1 mm 6 mps 728 mmHg 77%
    05:00 -2°C° 0.1 mm 6 mps 727 mmHg 77%
    06:00 -2°C° 0.1 mm 6 mps 727 mmHg 77%
    07:00 -2°C° 0 mm 6 mps 727 mmHg 78%
    08:00 -1°C° 0 mm 5 mps 726 mmHg 78%
    09:00 -1°C° 0 mm 5 mps 726 mmHg 79%
    10:00 -1°C° 0 mm 5 mps 726 mmHg 77%
    11:00 -1°C° 0 mm 6 mps 726 mmHg 76%
    12:00 -1°C° 0 mm 6 mps 726 mmHg 75%
    13:00 0°C° 0 mm 5 mps 725 mmHg 76%
    14:00 0°C° 0 mm 5 mps 725 mmHg 77%
    15:00 0°C° 0 mm 5 mps 724 mmHg 78%
    16:00 0°C° 0 mm 5 mps 724 mmHg 80%
    17:00 0°C° 0 mm 5 mps 723 mmHg 82%
    18:00 -1°C° 0 mm 6 mps 723 mmHg 84%
    19:00 0°C° 0 mm 5 mps 723 mmHg 83%
    20:00 0°C° 0 mm 5 mps 723 mmHg 83%
    21:00 0°C° 0 mm 5 mps 722 mmHg 82%
    22:00 0°C° 0.1 mm 5 mps 723 mmHg 83%
    23:00 0°C° 0.1 mm 5 mps 723 mmHg 85%

    15 December, Friday

    Time Temperature Precipitation Wind Pressure Humidity
    00:00 +1°C° 0.1 mm 6 mps 723 mmHg 86%
    01:00 0°C° 0 mm 5 mps 723 mmHg 85%
    02:00 0°C° 0 mm 5 mps 724 mmHg 84%
    03:00 0°C° 0 mm 5 mps 724 mmHg 83%
    04:00 -1°C° 0 mm 5 mps 725 mmHg 84%
    05:00 -1°C° 0 mm 4 mps 726 mmHg 85%
    06:00 -1°C° 0 mm 4 mps 726 mmHg 85%
    07:00 -1°C° 0 mm 5 mps 727 mmHg 84%
    08:00 -2°C° 0 mm 6 mps 728 mmHg 82%
    09:00 -2°C° 0 mm 7 mps 729 mmHg 80%
    10:00 -1°C° 0.1 mm 6 mps 730 mmHg 79%
    11:00 -1°C° 0.1 mm 6 mps 731 mmHg 78%
    12:00 +1°C° 0.1 mm 6 mps 732 mmHg 76%
    13:00 -1°C° 0 mm 6 mps 733 mmHg 76%
    14:00 0°C° 0 mm 5 mps 734 mmHg 76%
    15:00 0°C° 0 mm 4 mps 735 mmHg 76%
    16:00 -1°C° 0 mm 4 mps 735 mmHg 78%
    17:00 -1°C° 0 mm 4 mps 736 mmHg 79%
    18:00 -1°C° 0 mm 3 mps 737 mmHg 81%
    19:00 -1°C° 0 mm 3 mps 737 mmHg 82%
    20:00 -1°C° 0 mm 3 mps 738 mmHg 84%
    21:00 -1°C° 0 mm 3 mps 739 mmHg 85%
    22:00 -1°C° 0 mm 3 mps 739 mmHg 86%
    23:00 -1°C° 0 mm 3 mps 739 mmHg 87%

    16 December, Saturday

    Time Temperature Precipitation Wind Pressure Humidity
    00:00 -1°C° 0 mm 3 mps 740 mmHg 87%
    01:00 -1°C° 0 mm 3 mps 740 mmHg 87%
    02:00 -1°C° 0 mm 3 mps 741 mmHg 86%
    03:00 -2°C° 0 mm 4 mps 741 mmHg 85%
    04:00 -2°C° 0 mm 3 mps 741 mmHg 84%
    05:00 -2°C° 0 mm 3 mps 742 mmHg 82%
    06:00 -2°C° 0 mm 3 mps 742 mmHg 80%
    07:00 -2°C° 0 mm 3 mps 742 mmHg 78%
    08:00 -2°C° 0 mm 3 mps 743 mmHg 76%
    09:00 -2°C° 0 mm 3 mps 743 mmHg 75%
    10:00 0°C° 0.2 mm 3 mps 743 mmHg 76%
    11:00 0°C° 0.2 mm 4 mps 743 mmHg 78%
    12:00 +1°C° 0.2 mm 5 mps 743 mmHg 80%
    13:00 +1°C° 0.4 mm 5 mps 743 mmHg 81%
    14:00 +1°C° 0.4 mm 5 mps 743 mmHg 83%
    15:00 +1°C° 0.4 mm 4 mps 743 mmHg 85%
    16:00 0°C° 0.5 mm 4 mps 743 mmHg 86%
    17:00 +1°C° 0.5 mm 3 mps 743 mmHg 86%
    18:00 +2°C° 0.5 mm 2 mps 743 mmHg 87%
    19:00 +1°C° 0.3 mm 2 mps 743 mmHg 85%
    20:00 -1°C° 0.3 mm 2 mps 743 mmHg 83%
    21:00 -1°C° 0.3 mm 2 mps 744 mmHg 82%
    22:00 -2°C° 0 mm 2 mps 744 mmHg 80%
    23:00 -2°C° 0 mm 2 mps 744 mmHg 78%

    17 December, Sunday

    Time Temperature Precipitation Wind Pressure Humidity
    00:00 -3°C° 0 mm 2 mps 744 mmHg 77%
    01:00 -3°C° 0 mm 2 mps 744 mmHg 76%
    02:00 -3°C° 0 mm 2 mps 744 mmHg 75%
    03:00 -3°C° 0 mm 2 mps 745 mmHg 75%
    04:00 -3°C° 0 mm 2 mps 745 mmHg 75%
    05:00 -3°C° 0 mm 2 mps 745 mmHg 76%
    06:00 -3°C° 0 mm 2 mps 745 mmHg 76%
    07:00 -3°C° 0 mm 2 mps 745 mmHg 76%
    08:00 -3°C° 0 mm 2 mps 746 mmHg 76%
    09:00 -1°C° 0 mm 1 mps 746 mmHg 76%
    10:00 0°C° 0 mm 1 mps 746 mmHg 74%
    11:00 +1°C° 0 mm 1 mps 746 mmHg 72%
    12:00 +2°C° 0 mm 1 mps 746 mmHg 70%
    13:00 +1°C° 0 mm 1 mps 746 mmHg 73%
    14:00 +1°C° 0 mm 1 mps 745 mmHg 75%
    15:00 +1°C° 0 mm 1 mps 745 mmHg 77%
    16:00 0°C° 0 mm 1 mps 745 mmHg 78%
    17:00 0°C° 0 mm 1 mps 746 mmHg 79%
    18:00 0°C° 0 mm 1 mps 746 mmHg 80%
    19:00 -1°C° 0 mm 1 mps 746 mmHg 80%
    20:00 -1°C° 0 mm 1 mps 746 mmHg 80%
    21:00 -1°C° 0 mm 1 mps 747 mmHg 80%
    22:00 -1°C° 0 mm 1 mps 747 mmHg 80%
    23:00 -1°C° 0 mm 1 mps 747 mmHg 80%
    Show more